LKCS Weather Reports


time (UTC)temp
F
wind
direction
speed
knots
gust
knots
rain 1hr
in
rain 24hr
in
rain mn
in
humidity
%
barometer
mb
20260506090248 66 150 4.3 0.0 0.00 0.00 0.00 55 1007.0
20260506083237 64 0 4.3 0.0 0.00 0.00 0.00 59 1007.0
20260506080312 63 0 1.7 0.0 0.00 0.00 0.00 59 1007.0
20260506073237 63 180 5.2 0.0 0.00 0.00 0.00 67 1008.0
20260506070314 61 0 2.6 0.0 0.00 0.00 0.00 72 1007.0
20260506060314 57 110 5.2 0.0 0.00 0.00 0.00 82 1008.0
20260506050313 55 60 2.6 0.0 0.00 0.00 0.00 87 1008.0
20260506043305 55 0 0.9 0.0 0.00 0.00 0.00 87 1008.0
20260506040249 52 0 0.0 0.0 0.00 0.00 0.00 93 1007.0
20260506033223 52 0 2.6 0.0 0.00 0.00 0.00 100 1007.0
20260506030248 52 270 2.6 0.0 0.00 0.00 0.00 100 1007.0
20260506023304 54 0 1.7 0.0 0.00 0.00 0.00 93 1007.0
20260506020314 54 0 0.9 0.0 0.00 0.00 0.00 100 1007.0
20260506013231 54 0 1.7 0.0 0.00 0.00 0.00 100 1007.0
20260506010306 54 0 1.7 0.0 0.00 0.00 0.00 93 1007.0
20260506003237 54 0 0.9 0.0 0.00 0.00 0.00 93 1007.0
20260506000249 54 290 4.3 0.0 0.00 0.00 0.00 100 1007.0
20260505233304 55 290 4.3 0.0 0.00 0.00 0.00 93 1007.0
20260505230306 57 290 5.2 0.0 0.00 0.00 0.00 87 1007.0
20260505223305 57 330 4.3 0.0 0.00 0.00 0.00 93 1007.0
20260505220249 57 350 4.3 0.0 0.00 0.00 0.00 87 1007.0
20260505215904 57 350 4.3 0.0 0.00 0.00 0.00 87 1007.0
20260505213305 59 270 2.6 0.0 0.00 0.00 0.00 82 1007.0
20260505210306 59 0 1.7 0.0 0.00 0.00 0.00 82 1006.0
20260505205812 59 0 1.7 0.0 0.00 0.00 0.00 82 1006.0
20260505203305 64 290 10.4 0.0 0.00 0.00 0.00 59 1006.0
20260505200307 66 270 12.2 0.0 0.00 0.00 0.00 52 1005.0
20260505200018 66 270 12.2 0.0 0.00 0.00 0.00 52 1005.0
20260505193305 64 0 1.7 0.0 0.00 0.00 0.00 63 1004.0
20260505190306 63 0 1.7 0.0 0.00 0.00 0.00 63 1003.0
20260505183238 66 0 0.9 0.0 0.00 0.00 0.00 59 1003.0
20260505180307 68 0 0.9 0.0 0.00 0.00 0.00 56 1003.0
20260505173304 68 0 1.7 0.0 0.00 0.00 0.00 60 1003.0
20260505170306 70 0 1.7 0.0 0.00 0.00 0.00 49 1004.0
20260505163305 70 0 1.7 0.0 0.00 0.00 0.00 49 1004.0
20260505160242 70 40 2.6 0.0 0.00 0.00 0.00 49 1004.0
20260505153245 70 60 5.2 0.0 0.00 0.00 0.00 52 1004.0
20260505150247 70 50 6.1 0.0 0.00 0.00 0.00 49 1005.0
20260505140321 70 50 4.3 0.0 0.00 0.00 0.00 56 1005.0
20260505130255 75 310 6.1 0.0 0.00 0.00 0.00 33 1005.0
20260505123238 79 0 5.2 0.0 0.00 0.00 0.00 29 1005.0
20260505120240 77 300 7.0 0.0 0.00 0.00 0.00 31 1005.0
20260505113237 79 0 6.1 0.0 0.00 0.00 0.00 31 1006.0
20260505110258 77 20 6.1 0.0 0.00 0.00 0.00 33 1006.0
20260505100313 75 0 4.3 0.0 0.00 0.00 0.00 36 1007.0
20260505093304 73 0 2.6 0.0 0.00 0.00 0.00 40 1007.0